Regional Weather Roundup
Issued by NWS Sioux Falls, SD

Home | Current Version | Previous Version | Text Only | Print | Product List | Glossary On
Versions: 1 2 3 4 5 6 7 8 9 10 11 12 13 14 15 16 17 18 19 20 21 22 23 24 25 26 27 28 29 30 31 32 33 34 35 36 37 38 39 40 41 42 43 44 45 46 47 48 49 50
000
ASUS43 KFSD 280602
RWRFSD

WEATHER ROUNDUP FOR SE SOUTH DAKOTA/SW MINNESOTA/NW IOWA
NATIONAL WEATHER SERVICE SIOUX FALLS SD
100 AM CDT SUN MAY 28 2017

NOTE: "FAIR" INDICATES FEW OR NO CLOUDS BELOW 12,000 FEET WITH NO
SIGNIFICANT WEATHER AND OR OBSTRUCTIONS TO VISIBILITY.


SDZ038>040-050-052>070-280700-
SOUTHEAST SOUTH DAKOTA

CITY           SKY/WX    TMP DP  RH WIND       PRES   REMARKS
BROOKINGS      MOCLDY    58  50  75 SW12      29.85S
CHAMBERLAIN    CLOUDY    57  46  67 SW8       29.92S
6HR MIN TEMP:  57; 6HR MAX TEMP:  73;

HURON          PTCLDY    54  45  71 W10       29.86S
6HR MIN TEMP:  54; 6HR MAX TEMP:  72; 6HR PCP: TRACE;

MADISON        MOCLDY    55  55 100 SW16G23   29.88R
MITCHELL       CLOUDY    59  51  75 W9        29.89R
6HR MIN TEMP:  59; 6HR MAX TEMP:  70; 6HR PCP: TRACE;

SIOUX FALLS    CLEAR     57  52  83 SW8       29.88F
6HR MIN TEMP:  57; 6HR MAX TEMP:  67;

WINNER         FAIR      56  46  69 W9        29.95F
YANKTON        CLEAR     56  52  86 SW9       29.90F
$$

MNZ071-072-080-081-089-090-097-098-280700-
SOUTHWEST MINNESOTA

CITY           SKY/WX    TMP DP  RH WIND       PRES   REMARKS
FAIRMONT       CLEAR     59  51  75 SW9       29.86S
JACKSON        PTCLDY    55  52  88 SW8       29.87S
LUVERNE        CLEAR     52  48  87 W12       29.89S
MARSHALL       CLEAR     59  48  67 SW20      29.81F
6HR MIN TEMP:  59; 6HR MAX TEMP:  69;

MONTEVIDEO     CLOUDY    61  48  63 W8        29.79F
PIPESTONE      CLEAR     54  46  76 W7        29.86F
REDWOOD FALLS  CLEAR     59  47  64 SW13      29.80F
TRACY          CLEAR     58  49  71 SW12      29.84S
WINDOM         PTCLDY    59  52  77 SW10      29.85F
WORTHINGTON    CLEAR     56  51  84 W13       29.88S
$$

IAZ001>003-012>014-020>022-031-032-NEZ013-014-SDZ071-280700-
NORTHWEST IOWA

CITY           SKY/WX    TMP DP  RH WIND       PRES   REMARKS
CHEROKEE       CLEAR     55  53  91 W5        29.90S
DENISON        CLOUDY    57  52  82 CALM      29.94R
ESTHERVILLE    CLOUDY    55  53  93 SW8       29.86S
LE MARS        PTCLDY    57  52  82 W7        29.91F
ORANGE CITY    PTCLDY    55  54  94 W10       29.90F
SHELDON        PTCLDY    55  52  88 SW8       29.88F
SIOUX CITY     LGT RAIN  57  52  83 W7        29.91F
6HR MIN TEMP:  57; 6HR MAX TEMP:  68; 6HR PCP: TRACE;

SPENCER        PTCLDY    56  53  90 W9        29.88F
6HR MIN TEMP:  54; 6HR MAX TEMP:  69; 6HR PCP:  0.01;

STORM LAKE     CLEAR     55  52  88 W7        29.90F
$$

ABBREVIATIONS USED IN REMARKS
   TC - TEMPERATURE IN CELSIUS
  WCI - WIND CHILL INDEX
   HX - HEAT INDEX
  VSB - VISIBILITY





USA.gov is the U.S. government's official web portal to all federal, state and local government web resources and services.